Simultaneous Nadir Overpasses (SNOs) Predictions

Prediction of SNOs between FY3D and LANDSAT-8 Satellite Orbit:

Table of predicted SNOs for the next 14.0 days since TLE Epoch: 5/11/2024
Index Date (FY3D) Time (FY3D) Lat,Lon (FY3D) SZA (FY3D ) Date (LANDSAT-8) Time (LANDSAT-8) Lat,Lon (LANDSAT-8) SZA (LANDSAT-8 ) Distance(km) Time Diff (sec)
1 05/12/2024 17:19:17 74.39, -76.55 55.97 05/12/2024 17:20:29 74.38, -76.46 55.96 2.99 72
2 05/12/2024 18:10:00 -74.32, 90.95 124.11 05/12/2024 18:09:58 -74.31, 90.99 124.13 2.42 2
3 05/12/2024 19:00:39 73.97,-100.82 55.55 05/12/2024 18:59:28 74.07,-101.91 55.62 35.35 71
4 05/15/2024 08:46:11 -74.98,-129.81 124.11 05/15/2024 08:47:17 -74.89,-126.95 124.13 83.30 66
5 05/15/2024 09:36:44 74.35, 39.25 55.29 05/15/2024 09:36:53 74.35, 39.36 55.29 3.32 9
6 05/15/2024 10:27:27 -74.27,-153.23 124.80 05/15/2024 10:26:22 -74.28,-153.18 124.80 1.80 65
7 05/18/2024 01:03:26 -74.33, -12.32 125.33 05/18/2024 01:03:51 -74.35, -12.41 125.32 3.34 25
8 05/18/2024 01:54:11 74.28, 155.13 54.62 05/18/2024 01:53:18 74.26, 155.03 54.59 3.54 53
9 05/20/2024 16:30:10 74.36, -64.03 54.15 05/20/2024 16:30:45 74.36, -64.11 54.14 2.38 35
10 05/20/2024 17:20:54 -74.32, 103.39 125.90 05/20/2024 17:20:13 -74.34, 103.48 125.89 3.38 41
11 05/23/2024 07:56:52 -74.37,-115.68 126.36 05/23/2024 07:57:40 -74.37,-115.81 126.36 3.71 48
12 05/23/2024 08:47:37 74.34, 51.73 53.60 05/23/2024 08:47:06 74.33, 51.74 53.59 0.45 31



Historial Predications of SNOs between FY3D and LANDSAT-8
